Regional Weather Roundup
Issued by NWS

Home | Current Version | Previous Version | Graphics & Text | Print | Product List | Glossary On
Versions: 1 2 3 4 5 6 7 8 9 10 11 12 13 14 15 16 17 18 19 20 21 22 23 24 25 26 27 28 29 30 31 32 33 34 35 36 37 38 39 40 41 42 43 44 45 46 47 48 49 50
000
ASUS45 KCYS 101410
RWRWY

WYOMING REGIONAL WEATHER ROUNDUP
NATIONAL WEATHER SERVICE CHEYENNE WY
700 AM MST WED FEB 10 2016

NOTE:  "FAIR" INDICATES FEW OR NO CLOUDS BELOW 12,000 FEET
WITH NO SIGNIFICANT WEATHER AND/OR OBSTRUCTIONS TO VISIBILITY.

WYZ001-101500-
YELLOWSTONE NATIONAL PARK

CITY           SKY/WX    TMP DP  RH WIND       PRES   REMARKS
LK YELLOWSTONE   N/A      2  -2  83 CALM      30.38F
W YELLOWSTONE  NOT AVBL

$$
WYZ002>013-054>058-071-098>099-101500-
NORTHERN WYOMING

CITY           SKY/WX    TMP DP  RH WIND       PRES   REMARKS
JACKSON        FOG        1   1 100 VRB7      30.42S VSB 3/4 WCI -11
CODY           FAIR      50  16  25 NW15G21   30.12S
GREYBULL       FAIR      18  16  92 SW3       30.15R
WORLAND        FAIR      18  16  92 CALM      30.13S
SHERIDAN       CLEAR     43  14  31 CALM      29.98F
BUFFALO        FAIR      47  13  25 W9        30.03S
GILLETTE       FAIR      40  19  43 W12       30.01S WCI  33
HULETT         FAIR      43  19  39 SW8       30.00R
NEWCASTLE      FAIR      32  19  59 NW5       30.02R WCI  27

$$
WYZ014>020-022>026-101>103-101500-
CENTRAL WYOMING

CITY           SKY/WX    TMP DP  RH WIND       PRES   REMARKS
BIG PINEY      FAIR       9   5  84 CALM      30.37S
PINEDALE       FAIR       9   3  78 NW9       30.37S WCI  -5
DUBOIS         FAIR      30   5  34 NW13      30.26S WCI  20
LANDER         FAIR      21  14  74 SE3       30.18F
RIVERTON       FAIR      14  11  87 W5        30.20S WCI   6
CASPER         FLURRIES  37  18  46 SW26      30.13F WCI  25
DOUGLAS        FAIR      37  21  52 NW8         N/A  WCI  31

$$
WYZ021-027>030-104>119-101500-
SOUTHERN WYOMING

CITY           SKY/WX    TMP DP  RH WIND       PRES   REMARKS
EVANSTON       FAIR      25  12  58 S8        30.39S WCI  16
FORT BRIDGER   SUNNY     28   9  43 W5        30.40S WCI  23
ROCK SPRINGS   FAIR      26  15  63 W5        30.35F WCI  20
DIXON          FAIR       2  -1  85 CALM      30.44S
RAWLINS        FAIR      34  15  46 MISG      30.28F
SARATOGA       FAIR      23  12  63 SE7       30.33S WCI  15
LARAMIE        FAIR      39  11  31 SW9G25    30.23F WCI  33
CHEYENNE       FAIR      41  15  35 W22       30.16R
TORRINGTON     FAIR      40  21  46 NW12      30.06R WCI  33
PINE BLUFFS    FAIR      39  21  48 W22       30.09F WCI  29

$$



USA.gov is the U.S. government's official web portal to all federal, state and local government web resources and services.